QTR97W OMAA-OTHH

Flight info

Callsign QTR97W
Flight time 0h 35m
Altitude 20000
Route MEKRI P899 TOVOX
Aircraft B77W/H-SDE1E2E3FGHIJ2J3J4J5M1RWXY/LB1D1

Departure

Time 2026-05-06 14:30
Airport Zayed International Airport (OMAA)

Arrival

Time 2026-05-06 15:06
Airport Hamad International Airport (OTHH)
Time Latitude Longitude Altitude Speed Heading
2026-05-06 13:50 24.44872 54.63903 78 ft 0 kts 335°
2026-05-06 14:16 24.44870 54.63904 79 ft 1 kts 335°
2026-05-06 14:17 24.44854 54.63912 85 ft 3 kts 334°
2026-05-06 14:17 24.44836 54.63922 85 ft 2 kts 334°
2026-05-06 14:17 24.44821 54.63930 84 ft 3 kts 325°
2026-05-06 14:17 24.44808 54.63942 85 ft 3 kts 304°
2026-05-06 14:18 24.44802 54.63952 85 ft 3 kts 287°
2026-05-06 14:18 24.44799 54.63969 86 ft 3 kts 262°
2026-05-06 14:18 24.44804 54.63989 84 ft 3 kts 248°
2026-05-06 14:18 24.44812 54.64010 86 ft 3 kts 244°
2026-05-06 14:19 24.44817 54.64022 86 ft 1 kts 245°
2026-05-06 14:19 24.44819 54.64025 86 ft 5 kts 245°
2026-05-06 14:21 24.44817 54.64021 86 ft 3 kts 245°
2026-05-06 14:21 24.44799 54.63978 86 ft 7 kts 245°
2026-05-06 14:22 24.44776 54.63923 86 ft 8 kts 244°
2026-05-06 14:22 24.44749 54.63863 84 ft 9 kts 246°
2026-05-06 14:22 24.44722 54.63795 85 ft 10 kts 245°
2026-05-06 14:22 24.44672 54.63738 85 ft 11 kts 219°
2026-05-06 14:23 24.44607 54.63747 83 ft 11 kts 127°
2026-05-06 14:23 24.44550 54.63832 84 ft 18 kts 127°
2026-05-06 14:23 24.44451 54.63972 85 ft 28 kts 127°
2026-05-06 14:23 24.44327 54.64148 84 ft 29 kts 127°
2026-05-06 14:24 24.44202 54.64324 85 ft 29 kts 127°
2026-05-06 14:24 24.44076 54.64499 86 ft 29 kts 128°
2026-05-06 14:24 24.43952 54.64676 86 ft 29 kts 127°
2026-05-06 14:24 24.43826 54.64852 86 ft 29 kts 128°
2026-05-06 14:25 24.43701 54.65028 83 ft 29 kts 128°
2026-05-06 14:25 24.43576 54.65204 85 ft 29 kts 127°
2026-05-06 14:25 24.43450 54.65380 86 ft 29 kts 128°
2026-05-06 14:25 24.43325 54.65555 82 ft 29 kts 128°
2026-05-06 14:26 24.43200 54.65732 84 ft 29 kts 128°
2026-05-06 14:26 24.43076 54.65908 85 ft 29 kts 128°
2026-05-06 14:26 24.42951 54.66084 85 ft 29 kts 127°
2026-05-06 14:26 24.42849 54.66226 86 ft 7 kts 127°
2026-05-06 14:27 24.42835 54.66245 84 ft 10 kts 128°
2026-05-06 14:27 24.42775 54.66331 87 ft 16 kts 128°
2026-05-06 14:27 24.42706 54.66429 87 ft 17 kts 128°
2026-05-06 14:27 24.42623 54.66546 86 ft 21 kts 128°
2026-05-06 14:28 24.42532 54.66674 85 ft 21 kts 127°
2026-05-06 14:28 24.42441 54.66802 85 ft 21 kts 128°
2026-05-06 14:28 24.42384 54.66866 84 ft 5 kts 171°
2026-05-06 14:28 24.42347 54.66848 83 ft 8 kts 212°
2026-05-06 14:29 24.42268 54.66785 85 ft 21 kts 217°
2026-05-06 14:29 24.42188 54.66693 84 ft 14 kts 264°
2026-05-06 14:29 24.42245 54.66609 83 ft 14 kts 313°
2026-05-06 14:29 24.42373 54.66433 84 ft 51 kts 307°
2026-05-06 14:30 24.42769 54.65876 85 ft 133 kts 308°
2026-05-06 14:30 24.43450 54.64922 374 ft 170 kts 311°
2026-05-06 14:30 24.44183 54.63891 1155 ft 170 kts 310°
2026-05-06 14:30 24.44930 54.62845 1890 ft 178 kts 308°
2026-05-06 14:31 24.45721 54.61733 2473 ft 192 kts 307°
2026-05-06 14:31 24.46568 54.60540 3061 ft 204 kts 307°
2026-05-06 14:31 24.47450 54.59291 3728 ft 211 kts 306°
2026-05-06 14:31 24.48380 54.57963 4253 ft 229 kts 306°
2026-05-06 14:32 24.49388 54.56524 4772 ft 247 kts 306°
2026-05-06 14:32 24.50479 54.54963 5118 ft 274 kts 305°
2026-05-06 14:32 24.51657 54.53246 5103 ft 278 kts 303°
2026-05-06 14:32 24.52442 54.51375 5030 ft 269 kts 278°
2026-05-06 14:33 24.52543 54.49310 5044 ft 277 kts 268°
2026-05-06 14:33 24.52581 54.47193 5015 ft 277 kts 269°
2026-05-06 14:33 24.52638 54.45091 5333 ft 281 kts 270°
2026-05-06 14:33 24.52701 54.42904 5853 ft 284 kts 270°
2026-05-06 14:34 24.52763 54.40754 6025 ft 290 kts 270°
2026-05-06 14:34 24.52827 54.38510 6522 ft 296 kts 270°
2026-05-06 14:34 24.52892 54.36271 7605 ft 293 kts 271°
2026-05-06 14:34 24.52957 54.34010 8460 ft 301 kts 271°
2026-05-06 14:35 24.53023 54.31702 9290 ft 302 kts 272°
2026-05-06 14:35 24.53088 54.29401 9861 ft 302 kts 272°
2026-05-06 14:35 24.53154 54.27084 10003 ft 306 kts 273°
2026-05-06 14:35 24.53221 54.24740 10011 ft 310 kts 273°
2026-05-06 14:36 24.53287 54.22366 10007 ft 310 kts 273°
2026-05-06 14:36 24.53352 54.20011 10007 ft 309 kts 273°
2026-05-06 14:36 24.53361 54.17650 10006 ft 308 kts 269°
2026-05-06 14:36 24.53263 54.15310 10007 ft 307 kts 268°
2026-05-06 14:37 24.53150 54.12973 10008 ft 305 kts 268°
2026-05-06 14:37 24.53048 54.10658 10007 ft 302 kts 269°
2026-05-06 14:37 24.52954 54.08346 10017 ft 303 kts 269°
2026-05-06 14:37 24.52863 54.06031 10036 ft 304 kts 269°
2026-05-06 14:38 24.52771 54.03641 10229 ft 326 kts 269°
2026-05-06 14:38 24.52671 54.01042 10443 ft 356 kts 269°
2026-05-06 14:38 24.52562 53.98218 10722 ft 382 kts 269°
2026-05-06 14:38 24.52444 53.95269 11523 ft 390 kts 269°
2026-05-06 14:39 24.52339 53.92276 12499 ft 393 kts 271°
2026-05-06 14:39 24.52685 53.89314 13371 ft 393 kts 285°
2026-05-06 14:39 24.53419 53.86407 14253 ft 398 kts 288°
2026-05-06 14:39 24.54213 53.83472 15181 ft 403 kts 288°
2026-05-06 14:40 24.55017 53.80509 16123 ft 407 kts 287°
2026-05-06 14:40 24.55815 53.77514 17100 ft 411 kts 286°
2026-05-06 14:40 24.56604 53.74484 18047 ft 415 kts 286°
2026-05-06 14:40 24.57390 53.71414 18908 ft 419 kts 285°
2026-05-06 14:41 24.58174 53.68315 19688 ft 423 kts 285°
2026-05-06 14:41 24.58960 53.65179 20039 ft 430 kts 285°
2026-05-06 14:41 24.59760 53.61977 20026 ft 436 kts 285°
2026-05-06 14:41 24.60561 53.58765 20030 ft 436 kts 285°
2026-05-06 14:42 24.61362 53.55548 19946 ft 436 kts 285°
2026-05-06 14:42 24.62160 53.52340 19871 ft 436 kts 285°
2026-05-06 14:42 24.62959 53.49127 19822 ft 436 kts 285°
2026-05-06 14:42 24.63761 53.45901 19781 ft 438 kts 285°
2026-05-06 14:43 24.64561 53.42678 19780 ft 438 kts 285°
2026-05-06 14:43 24.65365 53.39436 19783 ft 440 kts 285°
2026-05-06 14:43 24.66171 53.36182 19782 ft 442 kts 285°
2026-05-06 14:43 24.66968 53.32965 19781 ft 443 kts 285°
2026-05-06 14:44 24.67777 53.29696 19776 ft 443 kts 285°
2026-05-06 14:44 24.68586 53.26419 19774 ft 444 kts 285°
2026-05-06 14:44 24.69394 53.23146 19777 ft 444 kts 285°
2026-05-06 14:45 24.71009 53.16593 19780 ft 444 kts 285°
2026-05-06 14:45 24.71816 53.13317 19778 ft 444 kts 284°
2026-05-06 14:45 24.72622 53.10038 19779 ft 443 kts 284°
2026-05-06 14:45 24.73425 53.06768 19781 ft 443 kts 284°
2026-05-06 14:46 24.74226 53.03505 19780 ft 442 kts 284°
2026-05-06 14:46 24.75026 53.00239 19781 ft 442 kts 284°
2026-05-06 14:46 24.75825 52.96977 19783 ft 442 kts 284°
2026-05-06 14:46 24.76622 52.93719 19788 ft 442 kts 284°
2026-05-06 14:47 24.77420 52.90453 19787 ft 442 kts 284°
2026-05-06 14:47 24.78215 52.87195 19786 ft 441 kts 284°
2026-05-06 14:47 24.79011 52.83929 19786 ft 441 kts 284°
2026-05-06 14:47 24.79806 52.80669 19788 ft 441 kts 284°
2026-05-06 14:48 24.80599 52.77408 19788 ft 441 kts 284°
2026-05-06 14:48 24.81392 52.74148 19785 ft 441 kts 284°
2026-05-06 14:48 24.82183 52.70891 19786 ft 441 kts 284°
2026-05-06 14:48 24.82974 52.67628 19788 ft 441 kts 284°
2026-05-06 14:49 24.83765 52.64367 19789 ft 441 kts 284°
2026-05-06 14:49 24.84553 52.61111 19790 ft 441 kts 284°
2026-05-06 14:49 24.85344 52.57852 19789 ft 440 kts 284°
2026-05-06 14:49 24.86140 52.54596 19789 ft 440 kts 284°
2026-05-06 14:50 24.86934 52.51343 19786 ft 438 kts 284°
2026-05-06 14:50 24.87718 52.48132 19779 ft 431 kts 284°
2026-05-06 14:50 24.88501 52.44917 18859 ft 441 kts 284°
2026-05-06 14:50 24.89288 52.41663 18290 ft 437 kts 283°
2026-05-06 14:51 24.89761 52.38414 17773 ft 427 kts 272°
2026-05-06 14:51 24.89719 52.35217 17264 ft 419 kts 268°
2026-05-06 14:51 24.89648 52.32039 16913 ft 409 kts 270°
2026-05-06 14:51 24.89662 52.28896 16600 ft 402 kts 271°
2026-05-06 14:52 24.89701 52.25821 16294 ft 403 kts 270°
2026-05-06 14:52 24.89574 52.22720 16002 ft 407 kts 266°
2026-05-06 14:52 24.89315 52.19614 15865 ft 405 kts 265°
2026-05-06 14:52 24.89040 52.16569 15818 ft 405 kts 265°
2026-05-06 14:53 24.88783 52.13486 15806 ft 405 kts 266°
2026-05-06 14:53 24.88547 52.10388 15801 ft 406 kts 266°
2026-05-06 14:53 24.88317 52.07253 15779 ft 405 kts 266°
2026-05-06 14:53 24.88097 52.04248 15242 ft 392 kts 266°
2026-05-06 14:54 24.87879 52.01294 14374 ft 383 kts 266°
2026-05-06 14:54 24.87664 51.98400 13742 ft 371 kts 267°
2026-05-06 14:54 24.87450 51.95502 13526 ft 390 kts 267°
2026-05-06 14:54 24.87228 51.92497 13221 ft 396 kts 267°
2026-05-06 14:55 24.87002 51.89484 12910 ft 393 kts 266°
2026-05-06 14:55 24.86777 51.86519 12670 ft 390 kts 266°
2026-05-06 14:55 24.86552 51.83539 12409 ft 387 kts 266°
2026-05-06 14:55 24.86330 51.80596 12122 ft 385 kts 266°
2026-05-06 14:56 24.86107 51.77658 11816 ft 385 kts 266°
2026-05-06 14:56 24.85885 51.74726 11512 ft 381 kts 266°
2026-05-06 14:56 24.85669 51.71900 11161 ft 358 kts 266°
2026-05-06 14:56 24.85467 51.69265 10880 ft 334 kts 266°
2026-05-06 14:57 24.85295 51.66794 10627 ft 313 kts 271°
2026-05-06 14:57 24.85733 51.64572 10266 ft 289 kts 301°
2026-05-06 14:57 24.87006 51.62953 9680 ft 277 kts 326°
2026-05-06 14:57 24.88720 51.61984 8860 ft 273 kts 343°
2026-05-06 14:58 24.90539 51.61501 8092 ft 271 kts 353°
2026-05-06 14:58 24.92399 51.61536 7334 ft 267 kts 15°
2026-05-06 14:58 24.94143 51.62184 6642 ft 264 kts 21°
2026-05-06 14:58 24.95861 51.62877 5981 ft 261 kts 21°
2026-05-06 14:59 24.97535 51.63547 5515 ft 250 kts 21°
2026-05-06 14:59 24.99091 51.64291 5031 ft 239 kts 34°
2026-05-06 14:59 25.00379 51.65402 4558 ft 231 kts 41°
2026-05-06 14:59 25.01567 51.66569 4048 ft 227 kts 42°
2026-05-06 15:00 25.02730 51.67730 3563 ft 227 kts 42°
2026-05-06 15:00 25.03908 51.68915 3097 ft 231 kts 42°
2026-05-06 15:00 25.05096 51.70117 2709 ft 230 kts 43°
2026-05-06 15:00 25.06319 51.71217 2530 ft 226 kts 26°
2026-05-06 15:01 25.07847 51.71545 2519 ft 229 kts 354°
2026-05-06 15:01 25.09320 51.70892 2507 ft 232 kts 323°
2026-05-06 15:01 25.10477 51.69640 2505 ft 235 kts 314°
2026-05-06 15:01 25.11559 51.68290 2508 ft 234 kts 313°
2026-05-06 15:02 25.12692 51.67078 2490 ft 218 kts 321°
2026-05-06 15:02 25.13747 51.65941 2353 ft 207 kts 322°
2026-05-06 15:02 25.14973 51.65215 2117 ft 195 kts 341°
2026-05-06 15:02 25.16217 51.64664 1900 ft 188 kts 339°
2026-05-06 15:03 25.17383 51.64141 1671 ft 173 kts 340°
2026-05-06 15:03 25.18460 51.63666 1404 ft 159 kts 339°
2026-05-06 15:03 25.19437 51.63232 1218 ft 147 kts 341°
2026-05-06 15:03 25.20376 51.62819 1076 ft 144 kts 341°
2026-05-06 15:04 25.21322 51.62401 871 ft 147 kts 340°
2026-05-06 15:04 25.21926 51.62135 779 ft 144 kts 341°
2026-05-06 15:04 25.22855 51.61728 632 ft 145 kts 340°
2026-05-06 15:04 25.23805 51.61305 459 ft 148 kts 340°
2026-05-06 15:05 25.24731 51.60894 244 ft 142 kts 341°
2026-05-06 15:05 25.25643 51.60496 51 ft 142 kts 342°
2026-05-06 15:05 25.26522 51.60114 23 ft 120 kts 338°
2026-05-06 15:05 25.27118 51.59851 22 ft 67 kts 338°
2026-05-06 15:06 25.27429 51.59717 24 ft 24 kts 339°
2026-05-06 15:06 25.27511 51.59745 22 ft 12 kts 71°
2026-05-06 15:06 25.27539 51.59831 27 ft 9 kts 73°
2026-05-06 15:06 25.27505 51.59885 29 ft 10 kts 153°
2026-05-06 15:07 25.27439 51.59916 30 ft 11 kts 158°
2026-05-06 15:07 25.27365 51.59948 31 ft 12 kts 158°
2026-05-06 15:07 25.27297 51.59979 27 ft 12 kts 158°
2026-05-06 15:07 25.27220 51.60013 29 ft 12 kts 159°
2026-05-06 15:08 25.27139 51.60048 28 ft 13 kts 158°
2026-05-06 15:08 25.27050 51.60088 28 ft 15 kts 158°
2026-05-06 15:08 25.26953 51.60130 28 ft 15 kts 158°
2026-05-06 15:08 25.26855 51.60174 26 ft 15 kts 158°
2026-05-06 15:09 25.26758 51.60218 28 ft 15 kts 158°
2026-05-06 15:09 25.26660 51.60261 27 ft 15 kts 158°
2026-05-06 15:09 25.26563 51.60303 27 ft 15 kts 158°
2026-05-06 15:09 25.26512 51.60388 30 ft 16 kts 79°
2026-05-06 15:10 25.26549 51.60503 27 ft 16 kts 69°
2026-05-06 15:10 25.26589 51.60617 27 ft 16 kts 77°
2026-05-06 15:10 25.26558 51.60736 27 ft 16 kts 108°
2026-05-06 15:10 25.26542 51.60858 27 ft 16 kts 78°
2026-05-06 15:11 25.26563 51.60968 27 ft 12 kts 74°
2026-05-06 15:11 25.26584 51.61031 27 ft 5 kts 68°
2026-05-06 15:11 25.26590 51.61047 27 ft 2 kts 68°
2026-05-06 15:11 25.26595 51.61060 27 ft 1 kts 68°
2026-05-06 15:12 25.26598 51.61069 27 ft 1 kts 68°
2026-05-06 15:12 25.26598 51.61071 27 ft 0 kts 67°